Dewpoint
45 44 45 46 49 50 53 55 56 55 55 54 54 53 51 51 51 51 50 49 48 46
43 45 45 48 50 50 52 53 54 54 53 53 53 51 49 49 49 48 49 50 48 45
41 44 46 47 48 48 50 52 52 51 50 50 49 48 47 46 45 46 47 48 45 43
43 45 46 46 47 48 50 50 49 49 48 47 46 46 45 46 45 44 45 45 45 44
43 45 45 46 46 47 47 47 47 47 46 46 46 46 46 46 45 44 44 43 44 42
43 44 45 45 45 45 45 45 44 43 43 43 42 43 42 43 43 43 43 41 41 40
43 43 43 42 42 42 42 42 42 42 42 41 40 40 40 40 39 39 39 39 39 39
42 41 41 41 40 40 40 40 40 39 39 39 39 38 37 36 36 35 35 36 36 36
41 40 40 39 38 38 38 38 38 38 37 36 36 36 36 36 35 35 34 33 33 35
40 39 38 37 37 36 36 36 35 36 35 33 34 35 34 32 32 32 32 32 31 30
39 38 37 36 35 35 34 34 33 33 33 32 31 32 32 32 32 31 31 31 31 30
38 37 37 36 35 35 33 33 32 32 33 32 31 32 32 32 30 29 30 31 30 30
38 38 37 36 35 35 34 32 32 32 33 32 31 32 31 32 30 28 27 23 21 22
37 37 37 36 36 35 34 33 32 31 32 33 31 31 30 29 29 28 26 23 22 23
Wind_Speed
12 12 12 13 14 15 15 14 10 13 18 19 21 21 21 23 27 28 30 30 27 22
14 13 13 14 14 15 16 15 16 15 16 17 19 21 22 23 25 22 25 23 24 21
14 14 13 12 13 14 15 15 16 16 16 16 18 20 21 22 22 25 24 22 24 22
15 14 12 12 11 11 12 13 14 15 16 16 18 19 22 24 23 25 24 24 25 23
14 14 13 10 9 10 11 9 9 10 11 12 14 18 22 24 23 27 27 25 23 20
14 11 11 8 8 9 10 10 9 8 10 11 10 11 12 15 18 19 19 19 20 18
10 7 6 5 6 6 7 8 8 8 8 7 5 5 5 5 2 9 12 12 10 13
3 4 2 2 3 4 5 4 4 4 6 4 6 6 10 13 14 11 18 17 16 17
4 3 2 1 1 2 3 5 4 5 6 10 9 12 14 10 12 10 14 19 14 15
5 4 3 3 1 3 2 3 5 6 6 8 7 12 11 11 12 12 11 13 16 16
6 5 6 6 5 3 2 4 5 6 5 6 5 11 15 17 13 16 14 13 13 17
7 7 9 9 8 6 5 5 4 5 7 7 7 11 15 14 14 16 14 11 11 14
9 9 9 9 11 9 8 7 7 7 7 8 9 9 14 13 12 14 12 12 12 13
10 9 8 8 6 9 9 9 9 9 7 7 7 9 11 10 11 12 12 11 11 13
Wind_Direction
293 293 292 289 287 280 277 278 274 253 242 238 235 225 220 217 215 211 210 208 203 193
289 289 288 289 292 289 287 282 277 261 248 241 237 226 216 216 217 209 205 204 195 183
278 277 280 284 288 290 290 286 280 267 256 239 229 222 212 216 211 205 202 194 185 184
269 267 273 280 289 297 295 282 266 264 254 238 229 219 215 216 207 204 200 194 192 189
261 263 266 278 298 307 306 309 293 280 257 246 242 233 223 219 210 202 197 193 188 185
251 253 272 299 319 321 317 314 312 295 277 264 246 247 251 243 218 206 195 186 174 161
267 266 288 320 328 327 329 324 332 325 307 277 246 221 191 153 166 135 126 123 124 135
237 262 298 321 332 342 342 3 25 28 35 44 65 90 103 100 101 85 86 83 86 97
202 190 185 152 43 27 29 45 86 73 58 56 61 84 78 82 83 88 102 95 85 78
186 178 140 88 84 64 90 107 94 93 96 92 76 86 90 95 100 93 95 103 102 92
183 174 151 150 132 155 143 137 124 122 120 112 105 112 104 94 93 92 83 89 98 104
193 185 178 160 153 142 138 130 120 116 111 104 103 115 108 101 93 93 94 99 107 111
197 199 184 163 156 153 153 135 118 103 111 112 117 120 111 107 110 108 115 112 110 111
194 191 179 170 152 157 145 138 125 116 115 127 129 129 121 126 130 131 128 124 120 117